N5ZKK Weather Reports


Display with metric or nautical units.
time (UTC)temp
F
wind
direction
speed
MPH
gust
MPH
rain 1hr
in
rain 24hr
in
rain mn
in
humidity
%
barometer
mb
20260901164027 97 117 5.0 6.0 0.00 0.00 0.00 41 1020.6
20260901163029 96 70 3.0 5.0 0.00 0.00 0.00 44 1020.6
20260901162651 96 45 2.0 7.0 0.00 0.00 0.00 45 1016.2
20260901162112 95 98 2.0 4.0 0.00 0.00 0.00 47 1020.6
20260901161016 96 88 3.0 5.0 0.00 0.00 0.00 46 1020.6
20260901160018 94 122 3.0 5.0 0.00 0.00 0.00 52 1020.6
20260901155651 93 79 2.0 5.0 0.00 0.00 0.00 53 1016.4
20260901155020 93 273 2.0 4.0 0.00 0.00 0.00 54 1020.6
20260901154016 92 113 2.0 5.0 0.00 0.00 0.00 57 1020.6
20260901153024 91 43 3.0 6.0 0.00 0.00 0.00 59 1020.6
20260901152651 90 37 2.0 4.0 0.00 0.00 0.00 60 1016.8
20260901152026 91 97 3.0 4.0 0.00 0.00 0.00 60 1020.6
20260901151048 90 98 3.0 5.0 0.00 0.00 0.00 63 1020.6
20260901150031 87 208 2.0 3.0 0.00 0.00 0.00 67 1020.6
20260901145651 88 111 1.0 3.0 0.00 0.00 0.00 66 1017.0
20260901145033 87 206 1.0 2.0 0.00 0.00 0.00 69 1020.6
20260901144017 86 86 2.0 4.0 0.00 0.00 0.00 71 1020.6
20260901143020 86 107 2.0 4.0 0.00 0.00 0.00 72 1020.6
20260901142651 84 139 3.0 4.0 0.00 0.00 0.00 73 1017.3
20260901142022 84 50 2.0 5.0 0.00 0.00 0.00 75 1020.5
20260901141023 83 115 2.0 4.0 0.00 0.00 0.00 78 1020.5
20260901140026 81 91 0.0 2.0 0.00 0.00 0.00 84 1020.6
20260901135651 80 121 0.0 3.0 0.00 0.00 0.00 85 1017.8
20260901135028 80 113 3.0 6.0 0.00 0.00 0.00 85 1020.6
20260901134030 80 125 3.0 5.0 0.00 0.00 0.00 87 1020.4
20260901133026 79 347 1.0 3.0 0.00 0.00 0.00 90 1020.3
20260901132651 77 113 2.0 3.0 0.00 0.00 0.00 91 1017.8
20260901132056 77 134 1.0 4.0 0.00 0.00 0.00 93 1020.4
20260901131018 75 0.0 0.0 0.00 0.00 0.00 98 1020.4
20260901130020 74 0.0 0.0 0.00 0.00 0.00 99 1020.2
20260901125651 73 0 0.0 0.0 0.00 0.00 0.00 99 1018.1
20260901125022 73 0.0 0.0 0.00 0.00 0.00 99 1020.1
20260901124024 72 68 0.0 2.0 0.00 0.00 0.00 99 1020.1
20260901123027 72 0.0 0.0 0.00 0.00 0.00 99 1020.0
20260901122651 72 0 0.0 0.0 0.00 0.00 0.00 99 1018.2
20260901122028 72 0.0 0.0 0.00 0.00 0.00 99 1019.9
20260901121031 73 0.0 0.0 0.00 0.00 0.00 99 1019.9
20260901120033 73 0.0 3.0 0.00 0.00 0.00 99 1019.9
20260901115651 72 135 0.0 2.0 0.00 0.00 0.00 99 1018.0
20260901115017 73 0.0 0.0 0.00 0.00 0.00 99 1019.9
20260901114039 73 0.0 0.0 0.00 0.00 0.00 99 1019.8
20260901113021 73 0.0 0.0 0.00 0.00 0.00 98 1019.8
20260901112651 73 0 0.0 0.0 0.00 0.00 0.00 98 1017.8
20260901112019 74 0.0 0.0 0.00 0.00 0.00 98 1019.8
20260901111020 74 163 1.0 4.0 0.00 0.00 0.00 98 1019.8
20260901110022 74 90 0.0 2.0 0.00 0.00 0.00 97 1019.8
20260901105651 73 93 1.0 3.0 0.00 0.00 0.00 97 1017.6
20260901105024 74 113 0.0 2.0 0.00 0.00 0.00 97 1019.7
20260901104020 74 109 1.0 4.0 0.00 0.00 0.00 96 1019.8
20260901103016 75 129 1.0 4.0 0.00 0.00 0.00 95 1019.9
20260901102651 74 134 1.0 2.0 0.00 0.00 0.00 95 1017.8
20260901102030 75 0.0 0.0 0.00 0.00 0.00 95 1019.8
20260901101032 75 138 3.0 4.0 0.00 0.00 0.00 94 1019.8
20260901100016 75 121 1.0 3.0 0.00 0.00 0.00 94 1019.8
20260901095651 75 123 0.0 3.0 0.00 0.00 0.00 93 1017.6
20260901095018 75 121 4.0 6.0 0.00 0.00 0.00 93 1019.8
20260901094020 75 61 2.0 5.0 0.00 0.00 0.00 92 1019.8
20260901093022 76 124 2.0 5.0 0.00 0.00 0.00 91 1019.9
20260901092651 75 129 2.0 5.0 0.00 0.00 0.00 90 1017.6
20260901092024 76 103 3.0 6.0 0.00 0.00 0.00 90 1019.9
20260901091026 76 128 4.0 6.0 0.00 0.00 0.00 88 1019.9
20260901090028 76 156 4.0 6.0 0.00 0.00 0.00 87 1019.9
20260901085651 76 121 1.0 4.0 0.00 0.00 0.00 86 1017.4
20260901085030 76 135 2.0 4.0 0.00 0.00 0.00 86 1019.8
20260901084032 76 122 3.0 6.0 0.00 0.00 0.00 85 1019.8
20260901083016 76 81 2.0 6.0 0.00 0.00 0.00 84 1019.7
20260901082651 76 128 1.0 3.0 0.00 0.00 0.00 83 1017.4
20260901082018 77 97 1.0 5.0 0.00 0.00 0.00 83 1019.8
20260901081040 77 73 1.0 3.0 0.00 0.00 0.00 82 1019.8
20260901080016 77 94 2.0 4.0 0.00 0.00 0.00 81 1019.8
20260901075651 77 102 2.0 5.0 0.00 0.00 0.00 80 1017.3
20260901075044 78 54 0.0 2.0 0.00 0.00 0.00 80 1019.8
20260901074026 78 38 1.0 4.0 0.00 0.00 0.00 79 1019.7
20260901073028 78 128 2.0 5.0 0.00 0.00 0.00 77 1019.7
20260901072651 78 116 2.0 3.0 0.00 0.00 0.00 77 1017.1
20260901072030 79 95 2.0 4.0 0.00 0.00 0.00 76 1019.6
20260901071032 79 109 3.0 5.0 0.00 0.00 0.00 76 1019.6
20260901070056 80 84 2.0 5.0 0.00 0.00 0.00 74 1019.6
20260901065651 79 121 2.0 5.0 0.00 0.00 0.00 73 1016.9
20260901065101 80 120 5.0 7.0 0.00 0.00 0.00 73 1019.6
20260901064020 80 117 4.0 8.0 0.00 0.00 0.00 72 1019.5
20260901063022 80 110 5.0 10.0 0.00 0.00 0.00 71 1019.3
20260901062651 80 139 4.0 6.0 0.00 0.00 0.00 71 1016.5
20260901062025 81 116 3.0 5.0 0.00 0.00 0.00 71 1019.4
20260901061026 81 123 3.0 8.0 0.00 0.00 0.00 71 1019.3
20260901060029 81 91 4.0 8.0 0.00 0.00 0.00 71 1019.2
20260901055651 80 113 4.0 7.0 0.00 0.00 0.00 71 1016.4
20260901055025 81 121 4.0 6.0 0.00 0.00 0.00 72 1019.2
20260901054023 81 141 3.0 4.0 0.00 0.00 0.00 71 1019.1
20260901053017 81 131 3.0 4.0 0.00 0.00 0.00 71 1019.0
20260901052655 81 130 3.0 5.0 0.00 0.00 0.00 71 1016.1
20260901052651 81 130 3.0 5.0 0.00 0.00 0.00 71 1016.1
20260901052019 81 120 2.0 4.0 0.00 0.00 0.00 71 1018.9
20260901051021 82 111 3.0 4.0 0.00 0.00 0.00 70 1018.9
20260901050022 82 106 2.0 4.0 0.00 0.00 0.00 70 1018.8
20260901045651 81 177 1.0 4.0 0.00 0.00 0.00 69 1015.8
20260901045025 82 115 2.0 5.0 0.00 0.00 0.00 69 1018.7
20260901044026 82 93 2.0 7.0 0.00 0.00 0.00 67 1018.7
20260901043028 82 180 0.0 3.0 0.00 0.00 0.00 66 1018.7
20260901042651 82 159 2.0 3.0 0.00 0.00 0.00 66 1015.7
20260901042030 82 66 3.0 5.0 0.00 0.00 0.00 66 1018.7
20260901041033 82 92 3.0 7.0 0.00 0.00 0.00 65 1018.6
20260901040036 83 82 1.0 4.0 0.00 0.00 0.00 64 1018.5
20260901035651 82 83 2.0 4.0 0.00 0.00 0.00 63 1015.5
20260901035018 82 95 2.0 4.0 0.00 0.00 0.00 63 1018.5
20260901034020 82 28 2.0 6.0 0.00 0.00 0.00 63 1018.3
20260901033022 82 50 2.0 4.0 0.00 0.00 0.00 63 1018.2
20260901032651 81 11 0.0 1.0 0.00 0.00 0.00 63 1015.3
20260901032024 82 15 1.0 2.0 0.00 0.00 0.00 63 1018.1
20260901031020 83 0.0 0.0 0.00 0.00 0.00 62 1018.0
20260901030016 83 0.0 0.0 0.00 0.00 0.00 60 1017.9
20260901025651 83 106 0.0 1.0 0.00 0.00 0.00 59 1014.8
20260901025050 84 115 1.0 2.0 0.00 0.00 0.00 59 1017.9
20260901024032 85 64 1.0 2.0 0.00 0.00 0.00 57 1017.6
20260901023037 85 105 1.0 3.0 0.00 0.00 0.00 57 1017.6
20260901022651 85 340 1.0 3.0 0.00 0.00 0.00 56 1014.3
20260901022059 85 22 1.0 4.0 0.00 0.00 0.00 56 1017.5
20260901021021 86 71 1.0 3.0 0.00 0.00 0.00 56 1017.4
20260901020023 86 25 2.0 4.0 0.00 0.00 0.00 55 1017.3
20260901015651 86 50 1.0 3.0 0.00 0.00 0.00 55 1013.7
20260901015025 87 34 2.0 4.0 0.00 0.00 0.00 54 1017.2
20260901014047 87 89 2.0 5.0 0.00 0.00 0.00 54 1017.1
20260901013029 88 39 3.0 4.0 0.00 0.00 0.00 53 1017.2
20260901012651 88 259 0.0 2.0 0.00 0.00 0.00 52 1013.5
20260901012030 88 52 2.0 6.0 0.00 0.00 0.00 52 1017.1
20260901011027 89 49 2.0 3.0 0.00 0.00 0.00 50 1017.0
20260901010028 90 68 3.0 5.0 0.00 0.00 0.00 50 1016.9
20260901005651 90 41 2.0 7.0 0.00 0.00 0.00 49 1013.0
20260901005024 91 62 3.0 6.0 0.00 0.00 0.00 48 1016.9
20260901004020 92 77 3.0 5.0 0.00 0.00 0.00 46 1016.8
20260901003016 93 49 3.0 5.0 0.00 0.00 0.00 45 1016.8
20260901002651 92 47 3.0 6.0 0.00 0.00 0.00 45 1012.7
20260901002018 93 58 4.0 7.0 0.00 0.00 0.00 45 1016.6
20260901001020 93 77 5.0 8.0 0.00 0.00 0.00 43 1016.6
20260901000022 94 131 4.0 11.0 0.00 0.00 0.00 44 1016.5
20260831235651 93 50 4.0 7.0 0.00 0.00 0.00 43 1012.2
20260831235024 94 104 5.0 12.0 0.00 0.00 0.00 43 1016.4
20260831234026 95 97 4.0 7.0 0.00 0.00 0.00 42 1016.4
20260831233028 95 114 4.0 8.0 0.00 0.00 0.00 41 1016.4
20260831232651 95 108 3.0 8.0 0.00 0.00 0.00 41 1012.1
20260831232030 96 109 5.0 7.0 0.00 0.00 0.00 42 1016.4
20260831231028 96 56 4.0 7.0 0.00 0.00 0.00 42 1016.4
20260831230029 96 119 6.0 11.0 0.00 0.00 0.00 42 1016.4
20260831225651 96 86 5.0 9.0 0.00 0.00 0.00 42 1012.1
20260831225031 97 68 3.0 9.0 0.00 0.00 0.00 43 1016.6
20260831224033 97 84 6.0 8.0 0.00 0.00 0.00 43 1016.6
20260831223017 97 81 5.0 9.0 0.00 0.00 0.00 42 1016.6
20260831222651 97 77 5.0 9.0 0.00 0.00 0.00 42 1012.0
20260831222019 98 77 4.0 8.0 0.00 0.00 0.00 41 1016.7
20260831221041 98 43 5.0 10.0 0.00 0.00 0.00 41 1016.9
20260831220017 98 106 6.0 11.0 0.00 0.00 0.00 40 1017.0
20260831215651 97 156 4.0 7.0 0.00 0.00 0.00 40 1012.5
20260831215025 99 99 6.0 9.0 0.00 0.00 0.00 41 1017.1
20260831214027 98 118 4.0 9.0 0.00 0.00 0.00 40 1017.2
20260831213028 98 63 4.0 7.0 0.00 0.00 0.00 41 1017.3
20260831212651 97 88 4.0 7.0 0.00 0.00 0.00 41 1012.7
20260831212031 98 128 5.0 9.0 0.00 0.00 0.00 42 1017.5
20260831211032 97 132 5.0 9.0 0.00 0.00 0.00 43 1017.6
20260831210017 99 89 4.0 7.0 0.00 0.00 0.00 43 1017.7
20260831205651 97 113 5.0 8.0 0.00 0.00 0.00 43 1013.4
20260831205119 96 158 4.0 6.0 0.00 0.00 0.00 44 1017.9
20260831204021 99 99 6.0 12.0 0.00 0.00 0.00 43 1018.1
20260831203023 99 116 6.0 10.0 0.00 0.00 0.00 42 1018.3
20260831202651 98 145 5.0 8.0 0.00 0.00 0.00 42 1013.7
20260831202044 99 137 6.0 8.0 0.00 0.00 0.00 43 1018.5
20260831201026 98 115 5.0 7.0 0.00 0.00 0.00 42 1018.6
20260831200028 98 113 6.0 9.0 0.00 0.00 0.00 43 1018.7
20260831195651 97 145 4.0 7.0 0.00 0.00 0.00 43 1014.3
20260831195024 98 125 6.0 7.0 0.00 0.00 0.00 43 1018.9
20260831194021 98 98 7.0 11.0 0.00 0.00 0.00 42 1019.1
20260831193037 98 135 5.0 8.0 0.00 0.00 0.00 44 1019.3
20260831192651 97 111 4.0 7.0 0.00 0.00 0.00 43 1014.7
20260831192019 97 123 6.0 8.0 0.00 0.00 0.00 43 1019.4
20260831191021 96 153 4.0 7.0 0.00 0.00 0.00 47 1019.4
20260831190023 97 106 6.0 10.0 0.00 0.00 0.00 47 1019.4
20260831185651 96 138 5.0 8.0 0.00 0.00 0.00 46 1015.1
20260831185025 97 124 6.0 9.0 0.00 0.00 0.00 45 1019.6
20260831184027 96 86 4.0 9.0 0.00 0.00 0.00 48 1019.6
20260831183029 95 124 5.0 9.0 0.00 0.00 0.00 50 1019.8
20260831182651 95 122 5.0 11.0 0.00 0.00 0.00 49 1015.4
20260831182051 95 111 5.0 7.0 0.00 0.00 0.00 49 1019.9
20260831181015 95 92 4.0 6.0 0.00 0.00 0.00 51 1019.9
20260831180017 95 92 5.0 8.0 0.00 0.00 0.00 50 1019.8
20260831175651 94 101 5.0 7.0 0.00 0.00 0.00 50 1015.8
20260831175019 94 115 5.0 9.0 0.00 0.00 0.00 50 1020.0
20260831174021 94 140 6.0 8.0 0.00 0.00 0.00 54 1020.1
20260831173043 94 106 7.0 8.0 0.00 0.00 0.00 51 1020.2
20260831172651 94 109 6.0 9.0 0.00 0.00 0.00 52 1016.0
20260831172025 94 68 4.0 10.0 0.00 0.00 0.00 53 1020.4
20260831171042 94 119 5.0 8.0 0.00 0.00 0.00 53 1020.4
20260831170038 93 126 5.0 7.0 0.00 0.00 0.00 55 1020.4
20260831165651 93 97 5.0 9.0 0.00 0.00 0.00 53 1016.1
20260831165032 93 61 6.0 8.0 0.00 0.00 0.00 55 1020.3